When you browse on this site, cookies collect data to enhance your experience and personalize the content and advertising you see.
Visit our Privacy Policy to learn more. By continuing to use the site, you agree to this use of cookies and data.
  • In Hungary
  • List of Countries
  • For 7 days
  • Water Temperature
  • Weather Map
  • News
  • Weather Widgets
  • user-avatar
    Login

    Hourly Weather Visimo-Utkinsk

    Today, 19 January, Sunday

    Time Temperature Precipitation Wind Pressure Humidity
    00:00 -11°C° 0 mm 1 mps 736 mmHg 92%
    01:00 -13°C° 0 mm 1 mps 736 mmHg 92%
    02:00 -13°C° 0 mm 1 mps 737 mmHg 91%
    03:00 -14°C° 0 mm 1 mps 737 mmHg 90%
    04:00 -15°C° 0 mm 1 mps 738 mmHg 90%
    05:00 -15°C° 0 mm 1 mps 738 mmHg 88%
    06:00 -15°C° 0 mm 1 mps 738 mmHg 87%
    07:00 -16°C° 0 mm 0 mps 737 mmHg 86%
    08:00 -15°C° 0 mm 0 mps 738 mmHg 83%
    09:00 -14°C° 0 mm 1 mps 738 mmHg 81%
    10:00 -13°C° 0 mm 1 mps 738 mmHg 78%
    11:00 -12°C° 0 mm 1 mps 738 mmHg 77%
    12:00 -10°C° 0 mm 1 mps 738 mmHg 76%
    13:00 -9°C° 0 mm 1 mps 737 mmHg 76%
    14:00 -9°C° 0.1 mm 1 mps 737 mmHg 82%
    15:00 -9°C° 0.1 mm 1 mps 737 mmHg 88%
    16:00 -9°C° 0.1 mm 1 mps 737 mmHg 95%
    17:00 -8°C° 0.4 mm 1 mps 736 mmHg 95%
    18:00 -8°C° 0.4 mm 1 mps 736 mmHg 95%
    19:00 -8°C° 0.4 mm 1 mps 736 mmHg 95%
    20:00 -7°C° 0.4 mm 1 mps 735 mmHg 95%
    21:00 -7°C° 0.4 mm 1 mps 735 mmHg 96%
    22:00 -7°C° 0.4 mm 1 mps 735 mmHg 96%
    23:00 -7°C° 0.3 mm 1 mps 734 mmHg 96%

    Tomorrow, 20 January, Monday

    Time Temperature Precipitation Wind Pressure Humidity
    00:00 -7°C° 0.3 mm 1 mps 734 mmHg 96%
    01:00 -7°C° 0.3 mm 1 mps 733 mmHg 96%
    02:00 -7°C° 0.3 mm 1 mps 733 mmHg 96%
    03:00 -7°C° 0.3 mm 1 mps 733 mmHg 96%
    04:00 -7°C° 0.3 mm 1 mps 733 mmHg 96%
    05:00 -7°C° 0.4 mm 1 mps 733 mmHg 96%
    06:00 -8°C° 0.4 mm 1 mps 732 mmHg 96%
    07:00 -9°C° 0.4 mm 2 mps 732 mmHg 95%
    08:00 -9°C° 0.3 mm 2 mps 732 mmHg 95%
    09:00 -10°C° 0.3 mm 2 mps 732 mmHg 94%
    10:00 -13°C° 0.3 mm 3 mps 732 mmHg 94%
    11:00 -13°C° 0.1 mm 3 mps 732 mmHg 93%
    12:00 -13°C° 0.1 mm 3 mps 732 mmHg 92%
    13:00 -13°C° 0.1 mm 3 mps 732 mmHg 92%
    14:00 -13°C° 0 mm 2 mps 732 mmHg 93%
    15:00 -14°C° 0 mm 2 mps 732 mmHg 94%
    16:00 -15°C° 0 mm 2 mps 732 mmHg 95%
    17:00 -16°C° 0 mm 2 mps 732 mmHg 96%
    18:00 -17°C° 0 mm 2 mps 732 mmHg 96%
    19:00 -17°C° 0 mm 2 mps 732 mmHg 97%
    20:00 -18°C° 0 mm 2 mps 732 mmHg 97%
    21:00 -18°C° 0 mm 2 mps 732 mmHg 97%
    22:00 -19°C° 0 mm 2 mps 732 mmHg 97%
    23:00 -17°C° 0 mm 1 mps 732 mmHg 98%

    Day after tomorrow, 21 January, Tuesday

    Time Temperature Precipitation Wind Pressure Humidity
    00:00 -18°C° 0 mm 1 mps 732 mmHg 98%
    01:00 -18°C° 0 mm 1 mps 731 mmHg 98%
    02:00 -19°C° 0 mm 1 mps 731 mmHg 98%
    03:00 -19°C° 0 mm 1 mps 731 mmHg 98%
    04:00 -19°C° 0 mm 0 mps 731 mmHg 98%
    05:00 -19°C° 0 mm 1 mps 731 mmHg 98%
    06:00 -19°C° 0 mm 1 mps 731 mmHg 98%
    07:00 -19°C° 0 mm 1 mps 730 mmHg 98%
    08:00 -18°C° 0 mm 1 mps 730 mmHg 97%
    09:00 -17°C° 0 mm 1 mps 730 mmHg 96%
    10:00 -15°C° 0 mm 1 mps 730 mmHg 95%
    11:00 -16°C° 0 mm 2 mps 730 mmHg 93%
    12:00 -14°C° 0 mm 2 mps 729 mmHg 91%
    13:00 -12°C° 0 mm 2 mps 729 mmHg 90%
    14:00 -13°C° 0 mm 2 mps 728 mmHg 91%
    15:00 -14°C° 0 mm 2 mps 728 mmHg 93%
    16:00 -15°C° 0 mm 2 mps 727 mmHg 95%
    17:00 -15°C° 0 mm 2 mps 726 mmHg 95%
    18:00 -16°C° 0 mm 3 mps 725 mmHg 95%
    19:00 -16°C° 0 mm 3 mps 725 mmHg 95%
    20:00 -15°C° 0 mm 3 mps 724 mmHg 95%
    21:00 -15°C° 0 mm 3 mps 723 mmHg 95%
    22:00 -14°C° 0 mm 3 mps 723 mmHg 94%
    23:00 -14°C° 0 mm 4 mps 721 mmHg 94%

    22 January, Wednesday

    Time Temperature Precipitation Wind Pressure Humidity
    00:00 -14°C° 0 mm 4 mps 720 mmHg 93%
    01:00 -12°C° 0 mm 4 mps 719 mmHg 93%
    02:00 -12°C° 0.1 mm 5 mps 718 mmHg 93%
    03:00 -12°C° 0.1 mm 5 mps 717 mmHg 92%
    04:00 -11°C° 0.1 mm 5 mps 716 mmHg 92%
    05:00 -11°C° 0.2 mm 5 mps 715 mmHg 92%
    06:00 -11°C° 0.2 mm 5 mps 715 mmHg 92%
    07:00 -11°C° 0.2 mm 5 mps 714 mmHg 91%
    08:00 -10°C° 0.2 mm 5 mps 713 mmHg 91%
    09:00 -10°C° 0.2 mm 5 mps 712 mmHg 91%
    10:00 -10°C° 0.2 mm 5 mps 712 mmHg 91%
    11:00 -8°C° 0.1 mm 4 mps 711 mmHg 91%
    12:00 -8°C° 0.1 mm 4 mps 711 mmHg 91%
    13:00 -7°C° 0.1 mm 4 mps 710 mmHg 91%
    14:00 -6°C° 0.1 mm 3 mps 710 mmHg 92%
    15:00 -6°C° 0.1 mm 3 mps 710 mmHg 93%
    16:00 -6°C° 0.1 mm 3 mps 710 mmHg 95%
    17:00 -6°C° 0.1 mm 2 mps 710 mmHg 95%
    18:00 -6°C° 0.1 mm 2 mps 709 mmHg 96%
    19:00 -6°C° 0.1 mm 2 mps 709 mmHg 96%
    20:00 -6°C° 0.1 mm 1 mps 709 mmHg 96%
    21:00 -6°C° 0.1 mm 1 mps 709 mmHg 97%
    22:00 -7°C° 0.1 mm 1 mps 709 mmHg 97%
    23:00 -7°C° 0.1 mm 1 mps 709 mmHg 97%

    23 January, Thursday

    Time Temperature Precipitation Wind Pressure Humidity
    00:00 -7°C° 0.1 mm 1 mps 709 mmHg 97%
    01:00 -7°C° 0.1 mm 1 mps 709 mmHg 96%
    02:00 -8°C° 0.1 mm 1 mps 709 mmHg 96%
    03:00 -8°C° 0.1 mm 1 mps 709 mmHg 96%
    04:00 -8°C° 0.1 mm 1 mps 709 mmHg 96%
    05:00 -9°C° 0.1 mm 2 mps 710 mmHg 95%
    06:00 -9°C° 0.1 mm 2 mps 710 mmHg 95%
    07:00 -10°C° 0.1 mm 3 mps 710 mmHg 94%
    08:00 -12°C° 0 mm 3 mps 711 mmHg 93%
    09:00 -12°C° 0 mm 4 mps 711 mmHg 92%
    10:00 -12°C° 0 mm 4 mps 712 mmHg 91%
    11:00 -12°C° 0 mm 4 mps 713 mmHg 91%
    12:00 -12°C° 0 mm 4 mps 713 mmHg 90%
    13:00 -11°C° 0 mm 4 mps 714 mmHg 89%
    14:00 -12°C° 0 mm 4 mps 714 mmHg 90%
    15:00 -12°C° 0 mm 4 mps 715 mmHg 90%
    16:00 -14°C° 0 mm 4 mps 716 mmHg 91%
    17:00 -15°C° 0 mm 4 mps 716 mmHg 92%
    18:00 -15°C° 0 mm 4 mps 716 mmHg 92%
    19:00 -16°C° 0 mm 4 mps 717 mmHg 93%
    20:00 -16°C° 0 mm 4 mps 717 mmHg 93%
    21:00 -16°C° 0 mm 4 mps 718 mmHg 93%
    22:00 -16°C° 0 mm 3 mps 718 mmHg 94%
    23:00 -16°C° 0 mm 3 mps 719 mmHg 94%

    24 January, Friday

    Time Temperature Precipitation Wind Pressure Humidity
    00:00 -17°C° 0 mm 4 mps 719 mmHg 93%
    01:00 -17°C° 0 mm 4 mps 720 mmHg 93%
    02:00 -17°C° 0 mm 4 mps 720 mmHg 93%
    03:00 -17°C° 0 mm 4 mps 720 mmHg 93%
    04:00 -17°C° 0 mm 4 mps 721 mmHg 93%
    05:00 -17°C° 0 mm 4 mps 721 mmHg 93%
    06:00 -18°C° 0 mm 4 mps 721 mmHg 93%
    07:00 -18°C° 0 mm 4 mps 721 mmHg 94%
    08:00 -18°C° 0 mm 4 mps 722 mmHg 93%
    09:00 -18°C° 0 mm 4 mps 722 mmHg 92%
    10:00 -17°C° 0 mm 4 mps 722 mmHg 91%
    11:00 -17°C° 0 mm 4 mps 722 mmHg 91%
    12:00 -16°C° 0 mm 4 mps 723 mmHg 91%
    13:00 -16°C° 0 mm 4 mps 723 mmHg 90%
    14:00 -16°C° 0 mm 4 mps 723 mmHg 91%
    15:00 -16°C° 0 mm 4 mps 723 mmHg 91%
    16:00 -16°C° 0 mm 4 mps 723 mmHg 92%
    17:00 -16°C° 0 mm 4 mps 724 mmHg 92%
    18:00 -16°C° 0 mm 4 mps 724 mmHg 93%
    19:00 -17°C° 0 mm 4 mps 724 mmHg 93%
    20:00 -16°C° 0 mm 3 mps 724 mmHg 94%
    21:00 -17°C° 0 mm 3 mps 725 mmHg 94%
    22:00 -17°C° 0 mm 3 mps 725 mmHg 95%
    23:00 -17°C° 0 mm 3 mps 725 mmHg 95%
    Show more